Location: Donzy-le-Pr�
(47.3659°N, 3.1107°E)
Time: 15:58:59
(UTC+00:00)

Helios 1A Rocket - Pass Details

Date: 03 March 2021
Orbit: 563 x 585 km, 98.3° (Epoch: 20 April)

Event Time Altitude Azimuth Distance (km) Brightness Sun altitude
Rises 19:12:39 0° 180° (S) 2,767 6.3 -17.2°
Reaches altitude 10° 19:14:51 10° 187° (S) 1,871 5.5 -17.5°
Maximum altitude 19:18:45 45° 260° (W) 786 4.0 -18.2°
Drops below altitude 10° 19:22:39 10° 334° (NNW) 1,876 6.0 -18.8°
Sets 19:24:52 0° 341° (NNW) 2,775 6.8 -19.2°
